Tracking 18980 objects as of 22-Feb-2018
HD Live streaming from Space Station
objects crossing your sky now

FENGYUN 1C DEB

Track FENGYUN 1C DEB now!
10-day predictions


NORAD ID: 29933
Int'l Code: 1999-025JF
Perigee: 793.9 km
Apogee: 811.6 km
Inclination: 98.9 °
Period: 100.8 minutes
Semi major axis: 7173 km
RCS: 0.0177 m2 (small)
Launch date: May 10, 1999
Source: People's Republic of China (PRC)
Launch site: Taiyaun Space Center, China (TSC)

Note: This is SATELLITE DEBRIS
aabbcc
Your satellite tracking list
Your tracking list is empty




NASA's NSSDC Master Catalog

Two Line Element Set (TLE):
1 29933U 99025JF  18052.96408439 +.00000938 +00000-0 +38972-3 0  9992
2 29933 098.8672 051.7074 0012353 120.5791 292.9504 14.28839732575725
Source of the keplerian elements: AFSPC